Weather History for Warrenton, VA

Change the Weather History Date:

Thursday, December 12, 2013

  Actual Average (KHEF) Record (KHEF)
Temperature  
Mean Temperature 25 °F -  
Max Temperature 35 °F 45 °F 62 °F (2007)
Min Temperature 15 °F 26 °F 17 °F (2013)
Degree Days  
Heating Degree Days 40    
Moisture  
Dew Point 19 °F    
Average Humidity 77    
Maximum Humidity 100    
Minimum Humidity 48    
Precipitation  
Precipitation 0.00 in - - ()
Sea Level Pressure  
Sea Level Pressure 30.33 in    
Wind  
Wind Speed 5 mph (NNW)    
Max Wind Speed 16 mph    
Max Gust Speed 18 mph    
Visibility 10 miles    
Events      
Averages and records for this station are not official NWS values.
T = Trace of Precipitation, MM = Missing Value Source: NWS Daily Summary

Daily Weather History Graph

Daily Weather History Graph

Search for Another Location

Airport:

Trip Planner

Search our weather history database for the weather conditions in past years. The results will help you decide how hot, cold, wet, or windy it might be!

Date:

Astronomy

Dec. 12, 2013 Rise Set
Actual Time 7:19 AM EST 4:50 PM EST
Civil Twilight 6:49 AM EST 5:19 PM EST
Nautical Twilight 6:16 AM EST 5:53 PM EST
Astronomical Twilight 5:44 AM EST 6:25 PM EST
Moon 1:53 PM EST (12/12) 2:42 AM EST (12/12)
Length of Visible Light 10h 30m
Length of Day
9h 30m
Waxing Gibbous, 80% of the Moon is Illuminated
Dec 12
Waxing Gibbous
Dec 17
Full
Dec 25
Last Quarter
Jan 1
New
Jan 7
First Quarter

Hourly Weather History & Observations

Time (EST) Temp. Windchill Dew Point Humidity Pressure Visibility Wind Dir Wind Speed Gust Speed Precip Events Conditions
12:15 AM 19.6 °F - 19.6 °F 100% 30.26 in 10.0 mi Calm Calm - N/A   Clear
12:35 AM 19.0 °F - 19.0 °F 100% 30.25 in 10.0 mi Calm Calm - N/A   Clear
12:55 AM 19.0 °F - 19.0 °F 100% 30.26 in 10.0 mi Calm Calm - N/A   Clear
1:15 AM 19.0 °F - 19.0 °F 100% 30.26 in 10.0 mi Calm Calm - N/A   Clear
1:35 AM 18.9 °F - 18.9 °F 100% 30.26 in 10.0 mi Calm Calm - N/A   Clear
1:55 AM 19.6 °F - 19.6 °F 100% 30.27 in 10.0 mi Calm Calm - N/A   Clear
2:15 AM 21.0 °F 14.6 °F 21.0 °F 100% 30.28 in 10.0 mi NW 4.6 mph - N/A   Clear
2:35 AM 30.9 °F 22.8 °F 26.4 °F 83% 30.28 in 10.0 mi NW 9.2 mph - N/A   Clear
2:55 AM 30.7 °F 23.3 °F 25.9 °F 82% 30.29 in 10.0 mi NNW 8.1 mph - N/A   Clear
3:15 AM 30.9 °F 22.8 °F 25.2 °F 79% 30.29 in 10.0 mi NNW 9.2 mph - N/A   Clear
3:35 AM 32.0 °F 23.0 °F 24.3 °F 73% 30.29 in 10.0 mi NW 11.5 mph - N/A   Clear
3:55 AM 31.6 °F 23.7 °F 23.5 °F 72% 30.30 in 10.0 mi NNW 9.2 mph - N/A   Clear
4:15 AM 31.6 °F 23.1 °F 25.5 °F 78% 30.30 in 10.0 mi North 10.4 mph - N/A   Clear
4:35 AM 31.1 °F 23.1 °F 25.3 °F 79% 30.30 in 10.0 mi North 9.2 mph - N/A   Clear
4:55 AM 30.2 °F 21.9 °F 24.8 °F 80% 30.31 in 10.0 mi NNW 9.2 mph - N/A   Clear
5:15 AM 30.0 °F 21.1 °F 24.3 °F 79% 30.31 in 10.0 mi North 10.4 mph - N/A   Clear
5:35 AM 30.2 °F 20.8 °F 23.0 °F 75% 30.31 in 10.0 mi NNW 11.5 mph - N/A   Clear
5:55 AM 29.3 °F 20.2 °F 23.4 °F 78% 30.33 in 10.0 mi North 10.4 mph - N/A   Clear
6:15 AM 28.8 °F 17.0 °F 22.8 °F 78% 30.34 in 10.0 mi NNW 16.1 mph - N/A   Clear
6:35 AM 28.0 °F 18.6 °F 21.0 °F 75% 30.35 in 10.0 mi North 10.4 mph - N/A   Clear
6:55 AM 27.5 °F 19.3 °F 19.8 °F 73% 30.36 in 10.0 mi North 8.1 mph - N/A   Clear
7:15 AM 27.1 °F 16.9 °F 19.6 °F 73% 30.36 in 10.0 mi NNW 11.5 mph - N/A   Clear
7:35 AM 27.3 °F 18.4 °F 18.9 °F 70% 30.38 in 10.0 mi North 9.2 mph 16.1 mph N/A   Clear
7:55 AM 27.0 °F 16.7 °F 18.5 °F 70% 30.39 in 10.0 mi North 11.5 mph - N/A   Clear
8:15 AM 26.8 °F 14.9 °F 18.1 °F 70% 30.40 in 10.0 mi NNW 15.0 mph 18.4 mph N/A   Clear
8:35 AM 26.6 °F 16.2 °F 17.2 °F 68% 30.41 in 10.0 mi North 11.5 mph - N/A   Clear
8:55 AM 26.6 °F 15.2 °F 18.0 °F 70% 30.42 in 10.0 mi North 13.8 mph - N/A   Clear
9:15 AM 26.6 °F 17.5 °F 17.6 °F 69% 30.43 in 10.0 mi North 9.2 mph 16.1 mph N/A   Clear
9:35 AM 26.6 °F 17.5 °F 17.8 °F 69% 30.43 in 10.0 mi North 9.2 mph - N/A   Clear
9:55 AM 27.1 °F 18.2 °F 17.8 °F 68% 30.43 in 10.0 mi North 9.2 mph - N/A   Clear
10:15 AM 29.1 °F 22.1 °F 17.6 °F 62% 30.42 in 10.0 mi North 6.9 mph 10.4 mph N/A   Clear
10:35 AM 29.8 °F 20.9 °F 18.1 °F 62% 30.42 in 10.0 mi NNW 10.4 mph 17.3 mph N/A   Clear
10:55 AM 30.9 °F 21.2 °F 18.3 °F 60% 30.41 in 10.0 mi NW 12.7 mph - N/A   Clear
11:15 AM 31.1 °F 22.4 °F 18.3 °F 59% 30.41 in 10.0 mi NNW 10.4 mph - N/A   Clear
11:35 AM 31.8 °F 23.3 °F 18.3 °F 57% 30.38 in 10.0 mi NNW 10.4 mph - N/A   Clear
11:55 AM 32.4 °F 29.1 °F 16.5 °F 52% 30.38 in 10.0 mi North 3.5 mph - N/A   Clear
12:15 PM 32.4 °F 27.9 °F 16.7 °F 53% 30.36 in 10.0 mi NW 4.6 mph - N/A   Clear
12:35 PM 32.9 °F 29.8 °F 15.3 °F 48% 30.36 in 10.0 mi West 3.5 mph - N/A   Clear
12:55 PM 32.9 °F - 16.0 °F 50% 30.35 in 10.0 mi Calm Calm - N/A   Clear
1:15 PM 32.5 °F - 15.3 °F 49% 30.35 in 10.0 mi Calm Calm - N/A   Clear
1:35 PM 32.7 °F - 14.9 °F 48% 30.34 in 10.0 mi Calm Calm - N/A   Clear
1:55 PM 33.8 °F - 16.0 °F 48% 30.34 in 10.0 mi Calm Calm - N/A   Clear
2:15 PM 33.4 °F 30.4 °F 16.9 °F 51% 30.33 in 10.0 mi South 3.5 mph - N/A   Clear
2:35 PM 34.3 °F 28.4 °F 17.6 °F 50% 30.33 in 10.0 mi SSW 6.9 mph - N/A   Clear
2:55 PM 35.6 °F 31.7 °F 18.7 °F 50% 30.33 in 10.0 mi West 4.6 mph - N/A   Clear
3:15 PM 35.4 °F 32.6 °F 17.8 °F 49% 30.32 in 10.0 mi WSW 3.5 mph - N/A   Clear
3:35 PM 35.1 °F - 18.5 °F 51% 30.32 in 10.0 mi Calm Calm - N/A   Clear
3:55 PM 34.7 °F - 18.9 °F 52% 30.32 in 10.0 mi Calm Calm - N/A   Clear
4:15 PM 33.8 °F - 19.2 °F 55% 30.32 in 10.0 mi Calm Calm - N/A   Clear
4:35 PM 32.0 °F - 19.8 °F 61% 30.32 in 10.0 mi Calm Calm - N/A   Clear
4:55 PM 28.0 °F - 21.7 °F 77% 30.32 in 10.0 mi Calm Calm - N/A   Clear
5:15 PM 28.0 °F - 20.1 °F 72% 30.32 in 10.0 mi Calm Calm - N/A   Clear
5:35 PM 25.7 °F - 21.0 °F 82% 30.32 in 10.0 mi Calm Calm - N/A   Clear
5:55 PM 24.6 °F - 21.0 °F 86% 30.32 in 10.0 mi Calm Calm - N/A   Clear
6:15 PM 24.3 °F - 20.7 °F 86% 30.33 in 10.0 mi Calm Calm - N/A   Clear
6:35 PM 22.6 °F - 20.8 °F 93% 30.33 in 10.0 mi Calm Calm - N/A   Clear
6:55 PM 21.0 °F - 19.8 °F 95% 30.33 in 10.0 mi Calm Calm - N/A   Clear
7:15 PM 23.5 °F 19.1 °F 20.8 °F 89% 30.34 in 10.0 mi NNE 3.5 mph - N/A   Clear
7:35 PM 21.0 °F - 19.2 °F 93% 30.34 in 10.0 mi Calm Calm - N/A   Clear
7:55 PM 21.0 °F 16.2 °F 19.2 °F 93% 30.34 in 10.0 mi ESE 3.5 mph - N/A   Clear
8:15 PM 20.5 °F 14.0 °F 18.5 °F 92% 30.33 in 10.0 mi SE 4.6 mph - N/A   Clear
8:35 PM 20.7 °F 14.2 °F 18.9 °F 93% 30.31 in 10.0 mi SE 4.6 mph - N/A   Clear
8:55 PM 20.3 °F - 19.0 °F 95% 30.31 in 10.0 mi Calm Calm - N/A   Clear
9:15 PM 18.7 °F - 17.8 °F 96% 30.31 in 10.0 mi Calm Calm - N/A   Clear
9:35 PM 17.8 °F - 17.8 °F 100% 30.30 in 10.0 mi Calm Calm - N/A   Clear
9:55 PM 18.3 °F - 18.3 °F 100% 30.29 in 10.0 mi Calm Calm - N/A   Clear
10:15 PM 17.1 °F 11.7 °F 17.1 °F 100% 30.28 in 10.0 mi South 3.5 mph - N/A   Clear
10:35 PM 16.2 °F - 16.2 °F 100% 30.27 in 10.0 mi Calm Calm - N/A   Clear
10:55 PM 16.3 °F - 16.0 °F 98% 30.26 in 10.0 mi Calm Calm - N/A   Clear
11:15 PM 16.9 °F - 16.9 °F 100% 30.26 in 10.0 mi Calm Calm - N/A   Clear
11:35 PM 15.6 °F - 15.6 °F 100% 30.26 in 10.0 mi Calm Calm - N/A   Clear
11:55 PM 16.3 °F - 16.3 °F 100% 30.26 in 10.0 mi Calm Calm - N/A   Clear